Burnet, TX

8:06 PM CST on February 09, 2016 (GMT -0600)
Burnet Municipal-Craddock

Weather History for KBMQ - June, 2012

Change the Weather History Date:

Tuesday, June 12, 2012

  Actual Average Record
Temperature  
Mean Temperature 82 °F -  
Max Temperature 93 °F 87 °F 95 °F (2001)
Min Temperature 72 °F 68 °F 64 °F (2014)
Cooling Degree Days 17    
Growing Degree Days 32 (Base 50)    
Moisture  
Dew Point 68 °F    
Average Humidity 65    
Maximum Humidity 81    
Minimum Humidity 44    
Precipitation  
Precipitation 0.00 in - - ()
Sea Level Pressure  
Sea Level Pressure 29.99 in    
Wind  
Wind Speed 8 mph (SSE)    
Max Wind Speed 20 mph    
Max Gust Speed 31 mph    
Visibility 9 miles    
Events      
Averages and records for this station are not official NWS values.
T = Trace of Precipitation, MM = Missing Value Source: NWS Daily Summary

Daily Weather History Graph

Daily Weather History Graph

Search for Another Location

Airport or City:

Trip Planner

Search our weather history database for the weather conditions in past years. The results will help you decide how hot, cold, wet, or windy it might be!

Date:

Astronomy

Jun. 12, 2012 Rise Set
Actual Time 6:29 AM CDT 8:36 PM CDT
Civil Twilight 6:01 AM CDT 9:04 PM CDT
Nautical Twilight 5:28 AM CDT 9:37 PM CDT
Astronomical Twilight 4:51 AM CDT 10:14 PM CDT
Moon 1:55 AM CDT (6/12) 2:45 PM CDT (6/12)
Length of Visible Light 15h 02m
Length of Day
14h 07m
Last Quarter, 38% of the Moon is Illuminated
Jun 12
Last Quarter
Jun 19
New
Jun 26
First Quarter
Jul 3
Full
Jul 10
Last Quarter

Hourly Weather History & Observations

Time (CDT) Temp. Heat Index Dew Point Humidity Pressure Visibility Wind Dir Wind Speed Gust Speed Precip Events Conditions
12:53 AM 82.9 °F 85.0 °F 66.0 °F 56% 29.95 in 10.0 mi SSE 6.9 mph - N/A   Clear
1:53 AM 82.0 °F 86.3 °F 71.1 °F 69% 29.93 in 10.0 mi South 9.2 mph 16.1 mph N/A   Clear
2:53 AM 81.0 °F 85.2 °F 72.0 °F 74% 29.95 in 10.0 mi SSE 6.9 mph - N/A   Clear
3:53 AM 80.1 °F 83.6 °F 71.1 °F 74% 29.94 in 10.0 mi South 9.2 mph - N/A   Clear
5:48 AM 78.8 °F - 71.6 °F 78% 30.01 in 9.0 mi South 9.2 mph - N/A   Mostly Cloudy
5:53 AM 78.1 °F - 72.0 °F 81% 29.95 in 9.0 mi South 10.4 mph - N/A   Mostly Cloudy
6:53 AM 78.1 °F - 72.0 °F 81% 29.96 in 7.0 mi South 9.2 mph - N/A   Overcast
7:53 AM 78.1 °F - 71.1 °F 79% 29.99 in 7.0 mi SSW 5.8 mph - N/A   Mostly Cloudy
8:53 AM 80.1 °F 83.6 °F 71.1 °F 74% 30.01 in 7.0 mi South 5.8 mph - N/A   Mostly Cloudy
9:53 AM 81.0 °F 84.9 °F 71.1 °F 72% 30.03 in 8.0 mi SE 5.8 mph - N/A   Overcast
10:13 AM 82.0 °F 86.3 °F 71.1 °F 69% 30.09 in 8.0 mi South 6.9 mph - N/A   Overcast
10:53 AM 84.0 °F 89.0 °F 71.1 °F 65% 30.02 in 8.0 mi SSE 6.9 mph - N/A   Mostly Cloudy
11:53 AM 84.9 °F 88.8 °F 69.1 °F 59% 30.03 in 9.0 mi South 11.5 mph - N/A   Mostly Cloudy
12:53 PM 90.0 °F 94.5 °F 69.1 °F 50% 30.01 in 10.0 mi SSE 9.2 mph - N/A   Scattered Clouds
1:53 PM 91.9 °F 95.4 °F 66.9 °F 44% 29.97 in 10.0 mi SSE 9.2 mph 17.3 mph N/A   Scattered Clouds
2:53 PM 91.9 °F 95.4 °F 66.9 °F 44% 29.98 in 10.0 mi ESE 6.9 mph - N/A   Partly Cloudy
3:53 PM 91.0 °F 94.3 °F 66.9 °F 45% 29.98 in 10.0 mi NNE 5.8 mph - N/A   Mostly Cloudy
4:53 PM 79.0 °F - 64.0 °F 60% 30.01 in 10.0 mi NNE 19.6 mph 29.9 mph N/A   Unknown
5:53 PM 79.0 °F - 66.0 °F 64% 29.95 in 10.0 mi ENE 11.5 mph 20.7 mph N/A   Clear
6:53 PM 82.0 °F 83.8 °F 64.9 °F 56% 29.94 in 10.0 mi ENE 11.5 mph - N/A   Clear
7:53 PM 75.0 °F - 62.1 °F 64% 30.00 in 10.0 mi East 17.3 mph 31.1 mph N/A   Clear
8:53 PM 73.9 °F - 63.0 °F 68% 30.02 in 10.0 mi SE 9.2 mph 23.0 mph N/A   Clear
9:53 PM 73.9 °F - 60.1 °F 62% 30.02 in 10.0 mi ESE 5.8 mph - N/A   Clear
10:53 PM 73.0 °F - 59.0 °F 61% 30.01 in 10.0 mi South 4.6 mph - N/A   Clear
11:53 PM 72.0 °F - 61.0 °F 68% 29.99 in 10.0 mi South 4.6 mph - N/A   Clear